When you browse on this site, cookies collect data to enhance your experience and personalize the content and advertising you see.
Visit our Privacy Policy to learn more. By continuing to use the site, you agree to this use of cookies and data.
  • In Austria
  • List of Countries
  • For 7 days
  • Water Temperature
  • Weather Map
  • News
  • Weather Widgets
  • user-avatar
    Login

    Hourly Weather Morales

    Today, 23 September, Monday

    Time Temperature Precipitation Wind Pressure Humidity
    00:00 +16°C° 0.3 mm 1 mps 624 mmHg 93%
    01:00 +16°C° 0 mm 1 mps 624 mmHg 92%
    02:00 +15°C° 0.2 mm 1 mps 624 mmHg 92%
    03:00 +15°C° 0.2 mm 1 mps 624 mmHg 91%
    04:00 +15°C° 0.2 mm 1 mps 624 mmHg 91%
    05:00 +16°C° 0 mm 1 mps 624 mmHg 90%
    06:00 +16°C° 0 mm 1 mps 625 mmHg 88%
    07:00 +18°C° 0 mm 1 mps 625 mmHg 86%
    08:00 +21°C° 0.1 mm 1 mps 626 mmHg 76%
    09:00 +23°C° 0.1 mm 1 mps 627 mmHg 65%
    10:00 +24°C° 0.1 mm 0 mps 628 mmHg 55%
    11:00 +26°C° 0.3 mm 1 mps 628 mmHg 56%
    12:00 +26°C° 0.3 mm 1 mps 627 mmHg 56%
    13:00 +26°C° 0.3 mm 2 mps 626 mmHg 57%
    14:00 +25°C° 0.8 mm 2 mps 625 mmHg 65%
    15:00 +24°C° 0.8 mm 1 mps 625 mmHg 73%
    16:00 +23°C° 0.8 mm 1 mps 624 mmHg 81%
    17:00 +21°C° 0.6 mm 1 mps 624 mmHg 85%
    18:00 +20°C° 0.6 mm 1 mps 624 mmHg 89%
    19:00 +18°C° 0.6 mm 1 mps 623 mmHg 93%
    20:00 +18°C° 0 mm 1 mps 624 mmHg 92%
    21:00 +16°C° 0 mm 1 mps 624 mmHg 91%
    22:00 +16°C° 0 mm 1 mps 624 mmHg 91%
    23:00 +16°C° 0 mm 1 mps 624 mmHg 90%

    Tomorrow, 24 September, Tuesday

    Time Temperature Precipitation Wind Pressure Humidity
    00:00 +16°C° 0 mm 1 mps 624 mmHg 90%
    01:00 +16°C° 0 mm 1 mps 623 mmHg 89%
    02:00 +15°C° 0 mm 1 mps 623 mmHg 89%
    03:00 +15°C° 0 mm 1 mps 623 mmHg 89%
    04:00 +15°C° 0 mm 1 mps 623 mmHg 89%
    05:00 +15°C° 0 mm 0 mps 623 mmHg 88%
    06:00 +15°C° 0 mm 0 mps 624 mmHg 87%
    07:00 +16°C° 0 mm 0 mps 625 mmHg 85%
    08:00 +19°C° 0 mm 0 mps 626 mmHg 75%
    09:00 +23°C° 0 mm 1 mps 627 mmHg 66%
    10:00 +26°C° 0 mm 1 mps 628 mmHg 56%
    11:00 +26°C° 0.6 mm 1 mps 628 mmHg 57%
    12:00 +26°C° 0.6 mm 1 mps 627 mmHg 59%
    13:00 +26°C° 0.6 mm 1 mps 626 mmHg 61%
    14:00 +25°C° 1.5 mm 1 mps 626 mmHg 69%
    15:00 +24°C° 1.5 mm 1 mps 625 mmHg 78%
    16:00 +22°C° 1.5 mm 1 mps 624 mmHg 86%
    17:00 +21°C° 1.5 mm 1 mps 624 mmHg 89%
    18:00 +20°C° 1.5 mm 1 mps 624 mmHg 92%
    19:00 +19°C° 1.5 mm 1 mps 624 mmHg 94%
    20:00 +19°C° 1 mm 1 mps 624 mmHg 94%
    21:00 +19°C° 1 mm 1 mps 625 mmHg 94%
    22:00 +18°C° 1 mm 1 mps 625 mmHg 94%
    23:00 +16°C° 0.6 mm 0 mps 625 mmHg 94%

    Day after tomorrow, 25 September, Wednesday

    Time Temperature Precipitation Wind Pressure Humidity
    00:00 +16°C° 0.6 mm 0 mps 624 mmHg 95%
    01:00 +15°C° 0.6 mm 0 mps 624 mmHg 95%
    02:00 +15°C° 0.2 mm 0 mps 624 mmHg 95%
    03:00 +15°C° 0.2 mm 0 mps 624 mmHg 95%
    04:00 +15°C° 0.2 mm 0 mps 623 mmHg 94%
    05:00 +15°C° 0.1 mm 0 mps 624 mmHg 93%
    06:00 +16°C° 0.1 mm 0 mps 625 mmHg 92%
    07:00 +16°C° 0.1 mm 0 mps 625 mmHg 91%
    08:00 +18°C° 0.1 mm 0 mps 626 mmHg 84%
    09:00 +20°C° 0.1 mm 0 mps 627 mmHg 78%
    10:00 +24°C° 0.1 mm 1 mps 627 mmHg 71%
    11:00 +24°C° 0.5 mm 1 mps 627 mmHg 68%
    12:00 +25°C° 0.5 mm 1 mps 626 mmHg 66%
    13:00 +26°C° 0.5 mm 1 mps 626 mmHg 64%
    14:00 +25°C° 1.4 mm 1 mps 625 mmHg 71%
    15:00 +23°C° 1.4 mm 1 mps 624 mmHg 79%
    16:00 +22°C° 1.4 mm 1 mps 624 mmHg 87%
    17:00 +21°C° 1.9 mm 1 mps 624 mmHg 90%
    18:00 +20°C° 1.9 mm 1 mps 624 mmHg 93%
    19:00 +19°C° 1.9 mm 1 mps 624 mmHg 96%
    20:00 +19°C° 1.9 mm 1 mps 624 mmHg 96%
    21:00 +17°C° 1.9 mm 0 mps 624 mmHg 96%
    22:00 +16°C° 1.9 mm 0 mps 625 mmHg 96%
    23:00 +16°C° 0.6 mm 0 mps 625 mmHg 95%

    26 September, Thursday

    Time Temperature Precipitation Wind Pressure Humidity
    00:00 +16°C° 0.6 mm 0 mps 624 mmHg 95%
    01:00 +16°C° 0.6 mm 0 mps 624 mmHg 94%
    02:00 +18°C° 0.1 mm 1 mps 624 mmHg 94%
    03:00 +16°C° 0.1 mm 1 mps 623 mmHg 94%
    04:00 +16°C° 0.1 mm 1 mps 623 mmHg 94%
    05:00 +16°C° 0.1 mm 1 mps 624 mmHg 93%
    06:00 +18°C° 0.1 mm 1 mps 624 mmHg 92%
    07:00 +16°C° 0.1 mm 0 mps 625 mmHg 91%
    08:00 +18°C° 0 mm 0 mps 626 mmHg 82%
    09:00 +20°C° 0 mm 0 mps 627 mmHg 73%
    10:00 +23°C° 0 mm 0 mps 627 mmHg 65%
    11:00 +24°C° 0.7 mm 1 mps 627 mmHg 68%
    12:00 +24°C° 0.7 mm 1 mps 626 mmHg 70%
    13:00 +24°C° 0.7 mm 1 mps 626 mmHg 73%
    14:00 +23°C° 1.2 mm 1 mps 625 mmHg 77%
    15:00 +23°C° 1.2 mm 1 mps 624 mmHg 81%
    16:00 +22°C° 1.2 mm 1 mps 623 mmHg 84%
    17:00 +21°C° 0.8 mm 1 mps 623 mmHg 87%
    18:00 +20°C° 0.8 mm 1 mps 623 mmHg 91%
    19:00 +18°C° 0.8 mm 1 mps 623 mmHg 94%
    20:00 +18°C° 0.3 mm 1 mps 624 mmHg 94%
    21:00 +16°C° 0.3 mm 1 mps 624 mmHg 94%
    22:00 +16°C° 0.3 mm 1 mps 624 mmHg 94%
    23:00 +16°C° 0 mm 1 mps 624 mmHg 94%

    27 September, Friday

    Time Temperature Precipitation Wind Pressure Humidity
    00:00 +16°C° 0 mm 1 mps 623 mmHg 93%
    01:00 +15°C° 0 mm 1 mps 623 mmHg 93%
    02:00 +14°C° 0 mm 0 mps 623 mmHg 93%
    03:00 +14°C° 0 mm 0 mps 623 mmHg 92%
    04:00 +14°C° 0 mm 0 mps 623 mmHg 92%
    05:00 +15°C° 0 mm 0 mps 623 mmHg 91%
    06:00 +15°C° 0 mm 0 mps 624 mmHg 90%
    07:00 +16°C° 0 mm 0 mps 624 mmHg 89%
    08:00 +18°C° 0 mm 0 mps 625 mmHg 80%
    09:00 +21°C° 0 mm 0 mps 627 mmHg 70%
    10:00 +25°C° 0 mm 1 mps 628 mmHg 61%
    11:00 +25°C° 1 mm 1 mps 627 mmHg 64%
    12:00 +25°C° 1 mm 1 mps 626 mmHg 67%
    13:00 +25°C° 1 mm 1 mps 625 mmHg 71%
    14:00 +24°C° 1.7 mm 1 mps 625 mmHg 75%
    15:00 +23°C° 1.7 mm 1 mps 624 mmHg 80%
    16:00 +22°C° 1.7 mm 1 mps 623 mmHg 85%
    17:00 +21°C° 0.9 mm 1 mps 623 mmHg 88%
    18:00 +20°C° 0.9 mm 1 mps 623 mmHg 91%
    19:00 +18°C° 0.9 mm 1 mps 623 mmHg 94%
    20:00 +18°C° 0.3 mm 1 mps 623 mmHg 94%
    21:00 +16°C° 0.3 mm 1 mps 623 mmHg 95%
    22:00 +16°C° 0.3 mm 1 mps 624 mmHg 95%
    23:00 +16°C° 0.1 mm 1 mps 623 mmHg 95%

    28 September, Saturday

    Time Temperature Precipitation Wind Pressure Humidity
    00:00 +16°C° 0.1 mm 1 mps 623 mmHg 95%
    01:00 +15°C° 0.1 mm 0 mps 623 mmHg 95%
    02:00 +14°C° 0.2 mm 0 mps 623 mmHg 94%
    03:00 +14°C° 0.2 mm 0 mps 623 mmHg 94%
    04:00 +14°C° 0.2 mm 0 mps 622 mmHg 94%
    05:00 +15°C° 0 mm 0 mps 623 mmHg 93%
    06:00 +15°C° 0 mm 0 mps 623 mmHg 92%
    07:00 +16°C° 0 mm 0 mps 624 mmHg 91%
    08:00 +18°C° 0.2 mm 0 mps 625 mmHg 85%
    09:00 +22°C° 0.2 mm 1 mps 626 mmHg 79%
    10:00 +24°C° 0.2 mm 1 mps 627 mmHg 73%
    11:00 +24°C° 1 mm 1 mps 626 mmHg 75%
    12:00 +23°C° 1 mm 1 mps 625 mmHg 77%
    13:00 +23°C° 1 mm 1 mps 624 mmHg 80%
    14:00 +23°C° 1.7 mm 1 mps 624 mmHg 83%
    15:00 +22°C° 1.7 mm 1 mps 623 mmHg 86%
    16:00 +21°C° 1.7 mm 1 mps 623 mmHg 89%
    17:00 +20°C° 1.1 mm 1 mps 623 mmHg 92%
    18:00 +19°C° 1.1 mm 1 mps 623 mmHg 94%
    19:00 +18°C° 1.1 mm 1 mps 623 mmHg 96%
    20:00 +16°C° 0.4 mm 0 mps 623 mmHg 96%
    21:00 +16°C° 0.4 mm 0 mps 623 mmHg 96%
    22:00 +16°C° 0.4 mm 0 mps 624 mmHg 96%
    23:00 +16°C° 0.1 mm 0 mps 623 mmHg 96%
    Show more